Dubuque, IA

7:58 AM CDT on July 21, 2017 (GMT -0500)
Dubuque Regional

Weather History for KDBQ - July, 2014

Change the Weather History Date:

Tuesday, July 22, 2014

  Actual Average Record
Temperature  
Mean Temperature 80 °F 72 °F  
Max Temperature 89 °F 82 °F 103 °F (1934)
Min Temperature 71 °F 62 °F 51 °F (1947)
Degree Days  
Heating Degree Days 0 0  
Month to date heating degree days 25 0  
Since 1 June heating degree days 35 40  
Since 1 July heating degree days 25 0  
Cooling Degree Days 15 7  
Month to date cooling degree days 82 155  
Year to date cooling degree days 290 331  
Since 1 June cooling degree days 236 294  
Growing Degree Days 30 (Base 50)    
Moisture  
Dew Point 72 °F    
Average Humidity 81    
Maximum Humidity 93    
Minimum Humidity 68    
Precipitation  
Precipitation 0.00 in 0.14 in 2.84 in (2010)
Month to date precipitation 1.81 3.08  
Year to date precipitation 26.76 20.35  
Snow  
Snow 0.00 in 0.00 in - ()
Month to date snowfall 0.0 0.0  
Since 1 June snowfall 0.0 0.0  
Since 1 July snowfall 0.0 0.0  
Snow Depth 0.00 in    
Sea Level Pressure  
Sea Level Pressure 29.96 in    
Wind  
Wind Speed 13 mph (WSW)    
Max Wind Speed 21 mph    
Max Gust Speed 25 mph    
Visibility 10 miles    
Events      
T = Trace of Precipitation, MM = Missing Value Source: NWS Daily Summary

Daily Weather History Graph

Daily Weather History Graph

Search for Another Location

Airport or City:

Trip Planner

Search our weather history database for the weather conditions in past years. The results will help you decide how hot, cold, wet, or windy it might be!

Date:

Astronomy

Jul. 22, 2014 Rise Set
Actual Time 5:45 AM CDT 8:32 PM CDT
Civil Twilight 5:12 AM CDT 9:05 PM CDT
Nautical Twilight 4:31 AM CDT 9:46 PM CDT
Astronomical Twilight 3:43 AM CDT 10:34 PM CDT
Moon 2:19 AM CDT (7/22) 5:09 PM CDT (7/22)
Length of Visible Light 15h 52m
Length of Day
14h 47m
Waning Crescent, 16% of the Moon is Illuminated
Jul 22
Waning Crescent
Jul 26
New
Aug 3
First Quarter
Aug 10
Full
Aug 17
Last Quarter

Hourly Weather History & Observations

Time (CDT) Temp. Heat Index Dew Point Humidity Pressure Visibility Wind Dir Wind Speed Gust Speed Precip Events Conditions
12:53 AM 73.0 °F - 69.1 °F 87% 29.98 in 10.0 mi South 11.5 mph - N/A   Clear
1:53 AM 72.0 °F - 69.1 °F 91% 29.98 in 10.0 mi South 11.5 mph - N/A   Clear
2:53 AM 72.0 °F - 69.1 °F 91% 29.97 in 10.0 mi South 12.7 mph - N/A   Clear
3:53 AM 72.0 °F - 68.0 °F 87% 29.96 in 10.0 mi South 13.8 mph - N/A   Mostly Cloudy
4:53 AM 71.1 °F - 68.0 °F 90% 29.95 in 10.0 mi South 12.7 mph - N/A   Clear
5:53 AM 71.1 °F - 68.0 °F 90% 29.94 in 10.0 mi South 13.8 mph - N/A   Clear
6:53 AM 71.1 °F - 68.0 °F 90% 29.93 in 10.0 mi South 13.8 mph - N/A   Clear
7:53 AM 73.9 °F - 69.1 °F 85% 29.93 in 10.0 mi SSW 17.3 mph - N/A   Clear
8:53 AM 77.0 °F - 71.6 °F 83% 29.97 in 10.0 mi SSW 16.1 mph - N/A   Clear
9:53 AM 80.1 °F 84.2 °F 73.0 °F 79% 29.95 in 10.0 mi WSW 17.3 mph 23.0 mph N/A   Clear
10:53 AM 82.0 °F 88.6 °F 75.0 °F 79% 29.95 in 10.0 mi WSW 15.0 mph - N/A   Mostly Cloudy
11:53 AM 84.9 °F 94.1 °F 75.9 °F 74% 29.94 in 10.0 mi WSW 12.7 mph - N/A   Partly Cloudy
12:28 PM 84.2 °F 94.1 °F 77.0 °F 79% 29.95 in 10.0 mi WSW 11.5 mph - N/A   Mostly Cloudy
12:53 PM 84.9 °F 95.3 °F 77.0 °F 77% 29.93 in 10.0 mi SW 11.5 mph - N/A   Overcast
1:53 PM 84.0 °F 92.6 °F 75.9 °F 76% 29.94 in 10.0 mi WSW 11.5 mph - N/A   Overcast
2:18 PM 86.0 °F 96.9 °F 77.0 °F 74% 29.99 in 10.0 mi WNW 17.3 mph 24.2 mph N/A   Mostly Cloudy
2:53 PM 84.9 °F 95.3 °F 77.0 °F 77% 29.95 in 10.0 mi WNW 16.1 mph - N/A   Clear
3:53 PM 88.0 °F 101.3 °F 78.1 °F 72% 29.94 in 10.0 mi NW 13.8 mph - N/A   Clear
4:53 PM 88.0 °F 101.3 °F 78.1 °F 72% 29.93 in 10.0 mi WNW 10.4 mph - N/A   Clear
5:53 PM 88.0 °F 97.5 °F 75.0 °F 65% 29.95 in 10.0 mi WNW 6.9 mph - N/A   Clear
6:53 PM 84.9 °F 91.4 °F 73.0 °F 67% 29.97 in 10.0 mi NNW 9.2 mph - N/A   Mostly Cloudy
7:53 PM 82.0 °F 86.7 °F 72.0 °F 71% 29.99 in 10.0 mi North 12.7 mph - N/A   Clear
8:53 PM 78.1 °F - 71.1 °F 79% 30.00 in 10.0 mi North 11.5 mph - N/A   Clear
9:53 PM 75.9 °F - 69.1 °F 79% 30.01 in 10.0 mi North 10.4 mph - N/A   Clear
10:53 PM 75.0 °F - 66.9 °F 76% 30.02 in 10.0 mi North 11.5 mph - N/A   Clear
11:53 PM 73.0 °F - 66.0 °F 79% 30.04 in 10.0 mi North 11.5 mph - N/A   Clear